Time,TemperatureF,DewpointF,PressureIn,WindDirection,WindDirectionDegrees,WindSpeedMPH,WindSpeedGustMPH,Humidity,HourlyPrecipIn,Conditions,Clouds,dailyrainin,SoftwareType,DateUTC
2013-10-04 00:29:00,69.0,-99.9,-100.00,NNE,28,5.0,7.0,-999,-99.99,,,-99.99,,2013-10-04 06:29:00,
2013-10-04 00:55:00,68.0,-99.9,-100.00,NE,39,4.0,10.0,-999,-99.99,,,-99.99,,2013-10-04 06:55:00,
2013-10-04 01:30:00,68.0,-99.9,-100.00,NNE,28,7.0,10.0,-999,-99.99,,,-99.99,,2013-10-04 07:30:00,
2013-10-04 01:50:00,68.0,-99.9,-100.00,NE,39,4.0,10.0,-999,-99.99,,,-99.99,,2013-10-04 07:50:00,
2013-10-04 02:40:00,62.0,-99.9,-100.00,ESE,106,0.0,2.0,-999,-99.99,,,-99.99,,2013-10-04 08:40:00,
2013-10-04 03:25:00,60.0,-99.9,-100.00,NNE,24,1.0,1.0,-999,-99.99,,,-99.99,,2013-10-04 09:25:00,
2013-10-04 03:29:00,62.0,-99.9,-100.00,ESE,106,0.0,2.0,-999,-99.99,,,-99.99,,2013-10-04 09:29:00,
2013-10-04 04:23:00,60.0,-99.9,-100.00,NNE,24,1.0,1.0,-999,-99.99,,,-99.99,,2013-10-04 10:23:00,
2013-10-04 04:25:00,61.0,-99.9,-100.00,North,351,1.0,3.0,-999,-99.99,,,-99.99,,2013-10-04 10:25:00,
2013-10-04 04:50:00,59.0,-99.9,-100.00,NNW,348,2.0,3.0,-999,-99.99,,,-99.99,,2013-10-04 10:50:00,
2013-10-04 05:23:00,61.0,-99.9,-100.00,North,351,1.0,3.0,-999,-99.99,,,-99.99,,2013-10-04 11:23:00,
2013-10-04 05:55:00,54.0,-99.9,-100.00,NNE,15,1.0,2.0,-999,-99.99,,,-99.99,,2013-10-04 11:55:00,
2013-10-04 06:15:00,54.0,-99.9,-100.00,West,278,1.0,2.0,-999,-99.99,,,-99.99,,2013-10-04 12:15:00,
2013-10-04 06:52:00,54.0,-99.9,-100.00,NNE,15,1.0,2.0,-999,-99.99,,,-99.99,,2013-10-04 12:52:00,
2013-10-04 07:05:00,55.0,-99.9,-100.00,East,97,0.0,2.0,-999,-99.99,,,-99.99,,2013-10-04 13:05:00,
2013-10-04 08:03:00,55.0,-99.9,-100.00,East,97,0.0,2.0,-999,-99.99,,,-99.99,,2013-10-04 14:03:00,
2013-10-04 08:05:00,63.0,-99.9,-100.00,NE,35,0.0,0.0,-999,-99.99,,,-99.99,,2013-10-04 14:05:00,
2013-10-04 08:30:00,64.0,-99.9,-100.00,NE,37,2.0,3.0,-999,-99.99,,,-99.99,,2013-10-04 14:30:00,
2013-10-04 08:55:00,66.0,-99.9,-100.00,ENE,67,5.0,5.0,-999,-99.99,,,-99.99,,2013-10-04 14:55:00,
2013-10-04 09:04:00,63.0,-99.9,-100.00,NE,35,0.0,0.0,-999,-99.99,,,-99.99,,2013-10-04 15:04:00,
2013-10-04 09:35:00,69.0,-99.9,-100.00,NE,50,4.0,7.0,-999,-99.99,,,-99.99,,2013-10-04 15:35:00,
2013-10-04 09:53:00,66.0,-99.9,-100.00,ENE,67,5.0,5.0,-999,-99.99,,,-99.99,,2013-10-04 15:53:00,
2013-10-04 10:33:00,69.0,-99.9,-100.00,NE,50,4.0,7.0,-999,-99.99,,,-99.99,,2013-10-04 16:33:00,
2013-10-04 11:33:00,71.0,-99.9,-100.00,NNE,24,3.0,9.0,-999,-99.99,,,-99.99,,2013-10-04 17:33:00,
2013-10-04 11:35:00,73.0,-99.9,-100.00,NE,44,7.0,9.0,-999,-99.99,,,-99.99,,2013-10-04 17:35:00,
2013-10-04 12:50:00,78.0,-99.9,-100.00,ENE,69,5.0,9.0,-999,-99.99,,,-99.99,,2013-10-04 18:50:00,
2013-10-04 13:12:00,76.0,-99.9,-100.00,NE,41,6.0,9.0,-999,-99.99,,,-99.99,,2013-10-04 19:12:00,
2013-10-04 13:22:00,75.0,-99.9,-100.00,ENE,78,7.0,9.0,-999,-99.99,,,-99.99,,2013-10-04 19:22:00,
2013-10-04 13:43:00,78.0,-99.9,-100.00,ENE,69,5.0,9.0,-999,-99.99,,,-99.99,,2013-10-04 19:43:00,
2013-10-04 14:43:00,78.0,-99.9,-100.00,NE,49,8.0,8.0,-999,-99.99,,,-99.99,,2013-10-04 20:43:00,
2013-10-04 14:53:00,77.0,-99.9,-100.00,NE,51,6.0,8.0,-999,-99.99,,,-99.99,,2013-10-04 20:53:00,
2013-10-04 15:02:00,77.0,-99.9,-100.00,NE,51,6.0,8.0,-999,-99.99,,,-99.99,,2013-10-04 21:02:00,
2013-10-04 15:30:00,80.0,-99.9,-100.00,ENE,66,9.0,11.0,-999,-99.99,,,-99.99,,2013-10-04 21:30:00,
2013-10-04 15:43:00,80.0,-99.9,-100.00,ENE,75,5.0,10.0,-999,-99.99,,,-99.99,,2013-10-04 21:43:00,
2013-10-04 16:12:00,80.0,-99.9,-100.00,ENE,66,9.0,11.0,-999,-99.99,,,-99.99,,2013-10-04 22:12:00,
2013-10-04 16:23:00,80.0,-99.9,-100.00,ENE,66,9.0,11.0,-999,-99.99,,,-99.99,,2013-10-04 22:23:00,
2013-10-04 16:30:00,80.0,-99.9,-100.00,NE,53,6.0,11.0,-999,-99.99,,,-99.99,,2013-10-04 22:30:00,
2013-10-04 17:20:00,79.0,-99.9,-100.00,East,79,3.0,9.0,-999,-99.99,,,-99.99,,2013-10-04 23:20:00,
2013-10-04 17:22:00,80.0,-99.9,-100.00,NE,53,6.0,11.0,-999,-99.99,,,-99.99,,2013-10-04 23:22:00,
2013-10-04 18:13:00,79.0,-99.9,-100.00,East,79,3.0,9.0,-999,-99.99,,,-99.99,,2013-10-05 00:13:00,
2013-10-04 18:53:00,76.0,-99.9,-100.00,ENE,77,4.0,6.0,-999,-99.99,,,-99.99,,2013-10-05 00:53:00,
2013-10-04 19:02:00,76.0,-99.9,-100.00,ENE,77,4.0,6.0,-999,-99.99,,,-99.99,,2013-10-05 01:02:00,
2013-10-04 19:52:00,71.0,-99.9,-100.00,NE,51,1.0,2.0,-999,-99.99,,,-99.99,,2013-10-05 01:52:00,
2013-10-04 20:03:00,71.0,-99.9,-100.00,NE,51,1.0,2.0,-999,-99.99,,,-99.99,,2013-10-05 02:03:00,
2013-10-04 20:52:00,65.0,-99.9,-100.00,East,94,2.0,2.0,-999,-99.99,,,-99.99,,2013-10-05 02:52:00,
2013-10-04 21:00:00,59.0,-99.9,-100.00,East,99,1.0,2.0,-999,-99.99,,,-99.99,,2013-10-05 03:00:00,
2013-10-04 21:12:00,63.0,-99.9,-100.00,NE,55,1.0,2.0,-999,-99.99,,,-99.99,,2013-10-05 03:12:00,
2013-10-04 21:23:00,63.0,-99.9,-100.00,NE,55,1.0,2.0,-999,-99.99,,,-99.99,,2013-10-05 03:23:00,
2013-10-04 21:30:00,58.0,-99.9,-100.00,NW,312,0.0,5.0,-999,-99.99,,,-99.99,,2013-10-05 03:30:00,
2013-10-04 21:55:00,59.0,-99.9,-100.00,East,99,1.0,2.0,-999,-99.99,,,-99.99,,2013-10-05 03:55:00,
2013-10-04 22:20:00,58.0,-99.9,-100.00,East,94,1.0,2.0,-999,-99.99,,,-99.99,,2013-10-05 04:20:00,
2013-10-04 22:24:00,58.0,-99.9,-100.00,NW,312,0.0,5.0,-999,-99.99,,,-99.99,,2013-10-05 04:24:00,
2013-10-04 23:13:00,58.0,-99.9,-100.00,East,94,1.0,2.0,-999,-99.99,,,-99.99,,2013-10-05 05:13:00,